STARLINK-34970 (65450 NORAD) Tracking and Keplerian Element Data

This shows tracking and keplerian element data for the satellite.

Feedback or suggestion? Click here.




ElementValue
Catalog65450
NameSTARLINK-34970
Epoch Orbit1767
Epoch Day354.140593
Epoch Year2025
RAAN205.9183
Inclination97.6021
Eccentricity0.0001914
Argument of Perigee77.694
Mean Anonmoly282.4501
Mean Motion15.05649977
Decay Rate2.213E-05
L11 65450U 25194S 25354.14059300 .00002213 00000+0 15756-3 0 9996
L22 65450 97.6021 205.9183 0001914 77.6940 282.4501 15.05649977 17679



Live tracking and technical data element details for STARLINK-34970 (NORAD 65450). STARLINK-34970 can be tracked NOW for your location showing map with azimuth and elevation plus other details from your city location.







IsCatalogInMostPopularTable: catalog: 65450, numindb: 13
Update: records affected: 1



GetName: 65450 STARLINK-34970

Hit Count: updated at: Tue, 21 Apr 2026 20:13:44 GMT